,,PA_Meas_PMT16A,,PR_Meas_QMR101_102,,RH_Meas_QMH101,,SR_Meas_QMS101,,TA_Meas_QMH101,,GenWind,,GenWind,
time,status,PA,status,PR,status,RH,status,SR,status,TA,status,DirAvg,status,SpdAvg,
2014-04-24, 00:00:05,VALID,918.278,VALID,0,VALID,96.947,VALID,0,VALID,20.2098,VALID,46,VALID,0.475391,
2014-04-24, 00:01:05,VALID,918.248,VALID,0,VALID,96.9394,VALID,0,VALID,20.2293,VALID,46,VALID,0.503906,
2014-04-24, 00:02:05,VALID,918.239,VALID,0,VALID,96.947,VALID,0,VALID,20.1903,VALID,46,VALID,0,
2014-04-24, 00:03:05,VALID,918.237,VALID,0,VALID,96.947,VALID,0,VALID,20.1903,VALID,46,VALID,0,
2014-04-24, 00:04:05,VALID,918.195,VALID,0,VALID,96.947,VALID,0,VALID,20.1513,VALID,46,VALID,0,
2014-04-24, 00:05:05,VALID,918.178,VALID,0,VALID,96.9394,VALID,0,VALID,20.1318,VALID,46,VALID,0,
2014-04-24, 00:06:05,VALID,918.187,VALID,0,VALID,96.9775,VALID,0,VALID,20.1123,VALID,46,VALID,0,
2014-04-24, 00:07:05,VALID,918.177,VALID,0,VALID,96.9698,VALID,0,VALID,20.1123,VALID,46,VALID,0,
2014-04-24, 00:08:05,VALID,918.188,VALID,0,VALID,96.9775,VALID,0,VALID,20.0928,VALID,46,VALID,0,
2014-04-24, 00:09:05,VALID,918.152,VALID,0,VALID,96.9622,VALID,0,VALID,20.0928,VALID,46,VALID,0.467969,
2014-04-24, 00:10:05,VALID,918.138,VALID,0,VALID,96.9851,VALID,0,VALID,20.0928,VALID,46,VALID,0.472266,
2014-04-24, 00:11:05,VALID,918.094,VALID,0,VALID,96.9698,VALID,0,VALID,20.0928,VALID,46,VALID,0.0492188,
2014-04-24, 00:12:05,VALID,918.096,VALID,0,VALID,96.9775,VALID,0,VALID,20.1123,VALID,46,VALID,0.343359,
2014-04-24, 00:13:05,VALID,918.039,VALID,0,VALID,96.9927,VALID,0,VALID,20.0733,VALID,46,VALID,0,
2014-04-24, 00:14:05,VALID,918.03,VALID,0,VALID,96.9851,VALID,0,VALID,20.0928,VALID,46,VALID,0.116797,
2014-04-24, 00:15:05,VALID,917.99,VALID,0,VALID,96.9698,VALID,0,VALID,20.0928,VALID,46,VALID,0.278125,
2014-04-24, 00:16:05,VALID,917.978,VALID,0,VALID,96.9622,VALID,0,VALID,20.0733,VALID,46,VALID,0,
2014-04-24, 00:17:05,VALID,917.968,VALID,0,VALID,96.9851,VALID,0,VALID,20.0749,VALID,46,VALID,0,
2014-04-24, 00:18:05,VALID,917.946,VALID,0,VALID,96.9698,VALID,0,VALID,20.0343,VALID,46,VALID,0.814062,
2014-04-24, 00:19:05,VALID,917.944,VALID,0,VALID,96.9622,VALID,0,VALID,20.1139,VALID,46,VALID,0.876562,
2014-04-24, 00:20:05,VALID,917.953,VALID,0,VALID,96.9775,VALID,0,VALID,20.1123,VALID,46,VALID,0.785937,
2014-04-24, 00:21:05,VALID,917.931,VALID,0,VALID,96.9546,VALID,0,VALID,20.1123,VALID,46,VALID,1.03633,
2014-04-24, 00:22:05,VALID,917.956,VALID,0,VALID,96.9851,VALID,0,VALID,20.0538,VALID,46,VALID,0.947266,
2014-04-24, 00:23:05,VALID,917.904,VALID,0,VALID,96.9775,VALID,0,VALID,20.0343,VALID,46,VALID,1.01367,
2014-04-24, 00:24:05,VALID,917.91,VALID,0,VALID,96.9698,VALID,0,VALID,20.0343,VALID,46,VALID,0.686328,
2014-04-24, 00:25:05,VALID,917.899,VALID,0,VALID,96.9775,VALID,0,VALID,20.0148,VALID,46,VALID,0.969531,
2014-04-24, 00:26:05,VALID,917.866,VALID,0,VALID,96.9851,VALID,0,VALID,19.9758,VALID,46,VALID,1.08828,
2014-04-24, 00:27:05,VALID,917.824,VALID,0,VALID,96.9698,VALID,0,VALID,20.0148,VALID,17,VALID,1.13477,
2014-04-24, 00:28:05,VALID,917.801,VALID,0,VALID,96.9927,VALID,0,VALID,20.0148,VALID,360,VALID,0.980859,
2014-04-24, 00:29:05,VALID,917.78,VALID,0,VALID,96.9851,VALID,0,VALID,20.0148,VALID,2,VALID,0.888281,
2014-04-24, 00:30:05,VALID,917.731,VALID,0,VALID,96.9927,VALID,0,VALID,19.9968,VALID,5,VALID,0.763672,
2014-04-24, 00:31:05,VALID,917.746,VALID,0,VALID,97.0003,VALID,0,VALID,19.9758,VALID,41,VALID,1.39727,
2014-04-24, 00:32:05,VALID,917.737,VALID,0,VALID,96.9851,VALID,0,VALID,19.9368,VALID,41,VALID,1.36563,
2014-04-24, 00:33:05,VALID,917.687,VALID,0,VALID,96.9698,VALID,0,VALID,19.9758,VALID,56,VALID,1.11914,
2014-04-24, 00:34:05,VALID,917.671,VALID,0,VALID,96.9927,VALID,0,VALID,19.9758,VALID,56,VALID,0.587891,
2014-04-24, 00:35:05,VALID,917.669,VALID,0,VALID,96.9851,VALID,0,VALID,19.9953,VALID,48,VALID,0.944922,
2014-04-24, 00:36:05,VALID,917.643,VALID,0,VALID,96.9927,VALID,0,VALID,19.9563,VALID,17,VALID,0.884375,
2014-04-24, 00:37:05,VALID,917.609,VALID,0,VALID,97.0003,VALID,0,VALID,19.9368,VALID,26,VALID,0.99375,
2014-04-24, 00:38:05,VALID,917.596,VALID,0,VALID,97.0003,VALID,0,VALID,19.9368,VALID,26,VALID,0.640234,
2014-04-24, 00:39:05,VALID,917.573,VALID,0,VALID,97.008,VALID,0,VALID,19.9563,VALID,17,VALID,0.680469,
2014-04-24, 00:40:05,VALID,917.552,VALID,0,VALID,97.008,VALID,0,VALID,19.9368,VALID,8,VALID,0.819141,
2014-04-24, 00:41:05,VALID,917.549,VALID,0,VALID,97.0003,VALID,0,VALID,19.9368,VALID,8,VALID,0.652734,
2014-04-24, 00:42:05,VALID,917.525,VALID,0,VALID,96.9927,VALID,0,VALID,19.9563,VALID,11,VALID,0.738672,
2014-04-24, 00:43:05,VALID,917.537,VALID,0,VALID,96.9927,VALID,0,VALID,19.9383,VALID,17,VALID,0.676953,
2014-04-24, 00:44:05,VALID,917.523,VALID,0,VALID,97.0003,VALID,0,VALID,19.9368,VALID,19,VALID,0.516797,
2014-04-24, 00:45:05,VALID,917.518,VALID,0,VALID,97.008,VALID,0,VALID,19.9173,VALID,8,VALID,0.608984,
2014-04-24, 00:46:05,VALID,917.533,VALID,0,VALID,97.0003,VALID,0,VALID,19.9578,VALID,8,VALID,0.604688,
2014-04-24, 00:47:05,VALID,917.557,VALID,0,VALID,97.008,VALID,0,VALID,19.9383,VALID,8,VALID,0.886719,
2014-04-24, 00:48:05,VALID,917.546,VALID,0,VALID,97.0003,VALID,0,VALID,19.8978,VALID,8,VALID,0.809375,
2014-04-24, 00:49:05,VALID,917.533,VALID,0,VALID,97.0003,VALID,0,VALID,19.9368,VALID,8,VALID,0.5125,
2014-04-24, 00:50:05,VALID,917.498,VALID,0,VALID,96.9927,VALID,0,VALID,19.9368,VALID,8,VALID,0.502344,
2014-04-24, 00:51:05,VALID,917.501,VALID,0,VALID,97.0003,VALID,0,VALID,19.9368,VALID,8,VALID,0.563672,
2014-04-24, 00:52:05,VALID,917.497,VALID,0,VALID,97.0003,VALID,0,VALID,19.9368,VALID,8,VALID,0.742578,
2014-04-24, 00:53:05,VALID,917.476,VALID,0,VALID,96.9851,VALID,0,VALID,19.9563,VALID,8,VALID,0.533203,
2014-04-24, 00:54:05,VALID,917.484,VALID,0,VALID,97.0003,VALID,0,VALID,19.9563,VALID,8,VALID,0.69375,
2014-04-24, 00:55:05,VALID,917.489,VALID,0,VALID,97.008,VALID,0,VALID,19.9368,VALID,8,VALID,0.744531,
2014-04-24, 00:56:05,VALID,917.5,VALID,0,VALID,96.9927,VALID,0,VALID,19.9368,VALID,8,VALID,0.514453,
2014-04-24, 00:57:05,VALID,917.477,VALID,0,VALID,97.008,VALID,0,VALID,19.9578,VALID,8,VALID,0.682422,
2014-04-24, 00:58:05,VALID,917.464,VALID,0,VALID,96.9927,VALID,0,VALID,19.9173,VALID,8,VALID,0.780078,
2014-04-24, 00:59:05,VALID,917.46,VALID,0,VALID,97.008,VALID,0,VALID,19.8978,VALID,8,VALID,0.634766,
2014-04-24, 01:00:05,VALID,917.429,VALID,0,VALID,97.008,VALID,0,VALID,19.8993,VALID,8,VALID,0.716406,
2014-04-24, 01:01:05,VALID,917.406,VALID,0,VALID,97.0232,VALID,0,VALID,19.8783,VALID,8,VALID,0.815234,
2014-04-24, 01:02:05,VALID,917.37,VALID,0,VALID,97.0232,VALID,0,VALID,19.8993,VALID,8,VALID,0.03125,
2014-04-24, 01:03:05,VALID,917.365,VALID,0,VALID,97.0003,VALID,0,VALID,19.8978,VALID,8,VALID,0,
2014-04-24, 01:04:05,VALID,917.366,VALID,0,VALID,97.0003,VALID,0,VALID,19.9188,VALID,8,VALID,0.4625,
2014-04-24, 01:05:05,VALID,917.353,VALID,0,VALID,97.008,VALID,0,VALID,19.8993,VALID,8,VALID,0.409766,
2014-04-24, 01:06:05,VALID,917.333,VALID,0,VALID,97.008,VALID,0,VALID,19.8798,VALID,36,VALID,0.967969,
2014-04-24, 01:07:05,VALID,917.308,VALID,0,VALID,97.0308,VALID,0,VALID,19.8393,VALID,46,VALID,0.864453,
2014-04-24, 01:08:05,VALID,917.335,VALID,0,VALID,97.008,VALID,0,VALID,19.8393,VALID,32,VALID,0.55,
2014-04-24, 01:09:05,VALID,917.334,VALID,0,VALID,97.0156,VALID,0,VALID,19.8588,VALID,32,VALID,0.378906,
2014-04-24, 01:10:05,VALID,917.329,VALID,0,VALID,97.0156,VALID,0,VALID,19.8798,VALID,32,VALID,0.0289063,
2014-04-24, 01:11:05,VALID,917.292,VALID,0,VALID,97.0156,VALID,0,VALID,19.8798,VALID,32,VALID,0.00273437,
2014-04-24, 01:12:05,VALID,917.292,VALID,0,VALID,97.0156,VALID,0,VALID,19.8588,VALID,32,VALID,0.148828,
2014-04-24, 01:13:05,VALID,917.248,VALID,0,VALID,97.0461,VALID,0,VALID,19.8393,VALID,18,VALID,0.709375,
2014-04-24, 01:14:05,VALID,917.21,VALID,0,VALID,97.0385,VALID,0,VALID,19.8213,VALID,6,VALID,0.582031,
2014-04-24, 01:15:05,VALID,917.174,VALID,0,VALID,97.0308,VALID,0,VALID,19.8213,VALID,6,VALID,0.0289063,
2014-04-24, 01:16:05,VALID,917.133,VALID,0,VALID,97.0156,VALID,0,VALID,19.8198,VALID,6,VALID,0.326562,
2014-04-24, 01:17:05,VALID,917.105,VALID,0,VALID,97.0232,VALID,0,VALID,19.8003,VALID,6,VALID,0.600391,
2014-04-24, 01:18:05,VALID,917.067,VALID,0,VALID,97.0156,VALID,0,VALID,19.8198,VALID,6,VALID,0.758984,
2014-04-24, 01:19:05,VALID,917.071,VALID,0,VALID,97.0385,VALID,0,VALID,19.8018,VALID,6,VALID,0.588672,
2014-04-24, 01:20:05,VALID,917.057,VALID,0,VALID,97.0461,VALID,0,VALID,19.7808,VALID,6,VALID,0.800781,
2014-04-24, 01:21:05,VALID,917.041,VALID,0,VALID,97.0537,VALID,0,VALID,19.8018,VALID,6,VALID,0.621094,
2014-04-24, 01:22:05,VALID,917.024,VALID,0,VALID,97.0385,VALID,0,VALID,19.8213,VALID,6,VALID,0.583203,
2014-04-24, 01:23:05,VALID,916.996,VALID,0,VALID,97.0385,VALID,0,VALID,19.8198,VALID,6,VALID,0.2875,
2014-04-24, 01:24:05,VALID,916.981,VALID,0,VALID,97.0308,VALID,0,VALID,19.8393,VALID,7,VALID,0.617578,
2014-04-24, 01:25:05,VALID,916.96,VALID,0,VALID,97.0308,VALID,0,VALID,19.8393,VALID,342,VALID,0.984766,
2014-04-24, 01:26:05,VALID,916.907,VALID,0,VALID,97.0232,VALID,0,VALID,19.8198,VALID,342,VALID,0.95,
2014-04-24, 01:27:05,VALID,916.929,VALID,0,VALID,97.0537,VALID,0,VALID,19.8198,VALID,342,VALID,0.552734,
2014-04-24, 01:28:05,VALID,916.895,VALID,0,VALID,97.0385,VALID,0,VALID,19.8003,VALID,343,VALID,0.749219,
2014-04-24, 01:29:05,VALID,916.871,VALID,0,VALID,97.0232,VALID,0,VALID,19.8213,VALID,345,VALID,0.379687,
2014-04-24, 01:30:05,VALID,916.851,VALID,0,VALID,97.0385,VALID,0,VALID,19.8003,VALID,342,VALID,0.883984,
2014-04-24, 01:31:05,VALID,916.905,VALID,0,VALID,97.0308,VALID,0,VALID,19.8003,VALID,342,VALID,0.667578,
2014-04-24, 01:32:05,VALID,916.861,VALID,0,VALID,97.0232,VALID,0,VALID,19.8213,VALID,342,VALID,0.113281,
2014-04-24, 01:33:05,VALID,916.883,VALID,0,VALID,97.008,VALID,0,VALID,19.8198,VALID,342,VALID,0,
2014-04-24, 01:34:05,VALID,916.846,VALID,0,VALID,97.0308,VALID,0,VALID,19.8393,VALID,342,VALID,0.244141,
2014-04-24, 01:35:05,VALID,916.887,VALID,0,VALID,97.0308,VALID,0,VALID,19.8393,VALID,342,VALID,0.497656,
2014-04-24, 01:36:05,VALID,916.823,VALID,0,VALID,97.0232,VALID,0,VALID,19.8213,VALID,342,VALID,0.328906,
2014-04-24, 01:37:05,VALID,916.843,VALID,0,VALID,97.0232,VALID,0,VALID,19.8798,VALID,342,VALID,0.240625,
2014-04-24, 01:38:05,VALID,916.773,VALID,0,VALID,97.0156,VALID,0,VALID,19.8393,VALID,342,VALID,0.460938,
2014-04-24, 01:39:05,VALID,916.735,VALID,0,VALID,97.008,VALID,0,VALID,19.8603,VALID,342,VALID,0.574219,
2014-04-24, 01:40:05,VALID,916.671,VALID,0,VALID,97.0308,VALID,0,VALID,19.8393,VALID,342,VALID,0.627734,
2014-04-24, 01:41:05,VALID,916.673,VALID,0,VALID,97.0385,VALID,0,VALID,19.8198,VALID,342,VALID,0.682422,
2014-04-24, 01:42:05,VALID,916.634,VALID,0,VALID,97.0308,VALID,0,VALID,19.8003,VALID,342,VALID,0.494141,
2014-04-24, 01:43:05,VALID,916.614,VALID,0,VALID,97.0461,VALID,0,VALID,19.8213,VALID,343,VALID,0.600391,
2014-04-24, 01:44:05,VALID,916.577,VALID,0,VALID,97.0308,VALID,0,VALID,19.7823,VALID,342,VALID,0.676953,
2014-04-24, 01:45:05,VALID,916.553,VALID,0,VALID,97.0461,VALID,0,VALID,19.7613,VALID,342,VALID,0.664844,
2014-04-24, 01:46:05,VALID,916.511,VALID,0,VALID,97.0461,VALID,0,VALID,19.7418,VALID,342,VALID,0.401172,
2014-04-24, 01:47:05,VALID,916.466,VALID,0,VALID,97.0613,VALID,0,VALID,19.7628,VALID,342,VALID,0.257031,
2014-04-24, 01:48:05,VALID,916.451,VALID,0,VALID,97.0461,VALID,0,VALID,19.7418,VALID,342,VALID,0.1,
2014-04-24, 01:49:05,VALID,916.45,VALID,0,VALID,97.0461,VALID,0,VALID,19.7418,VALID,342,VALID,0,
2014-04-24, 01:50:05,VALID,916.391,VALID,0,VALID,97.0613,VALID,0,VALID,19.7433,VALID,342,VALID,0.0402344,
2014-04-24, 01:51:05,VALID,916.374,VALID,0,VALID,97.0461,VALID,0,VALID,19.7223,VALID,342,VALID,0,
2014-04-24, 01:52:05,VALID,916.35,VALID,0,VALID,97.0613,VALID,0,VALID,19.7238,VALID,342,VALID,0,
2014-04-24, 01:53:05,VALID,916.344,VALID,0,VALID,97.0385,VALID,0,VALID,19.7043,VALID,342,VALID,0,
2014-04-24, 01:54:05,VALID,916.34,VALID,0,VALID,97.069,VALID,0,VALID,19.7043,VALID,342,VALID,0,
2014-04-24, 01:55:05,VALID,916.344,VALID,0,VALID,97.0537,VALID,0,VALID,19.6833,VALID,342,VALID,0,
2014-04-24, 01:56:05,VALID,916.349,VALID,0,VALID,97.0613,VALID,0,VALID,19.6848,VALID,342,VALID,0,
2014-04-24, 01:57:05,VALID,916.329,VALID,0,VALID,97.0842,VALID,0,VALID,19.6443,VALID,342,VALID,0,
2014-04-24, 01:58:05,VALID,916.326,VALID,0,VALID,97.0842,VALID,0,VALID,19.6248,VALID,342,VALID,0.385938,
2014-04-24, 01:59:05,VALID,916.375,VALID,0,VALID,97.069,VALID,0,VALID,19.6248,VALID,342,VALID,0.369141,
2014-04-24, 02:00:05,VALID,916.355,VALID,0,VALID,97.069,VALID,0,VALID,19.6248,VALID,342,VALID,0.133984,
2014-04-24, 02:01:05,VALID,916.34,VALID,0,VALID,97.0613,VALID,0,VALID,19.6248,VALID,342,VALID,0,
2014-04-24, 02:02:05,VALID,916.311,VALID,0,VALID,97.0613,VALID,0,VALID,19.6248,VALID,342,VALID,0,
2014-04-24, 02:03:05,VALID,916.329,VALID,0,VALID,97.0766,VALID,0,VALID,19.5858,VALID,342,VALID,0.217187,
2014-04-24, 02:04:05,VALID,916.332,VALID,0,VALID,97.0918,VALID,0,VALID,19.5858,VALID,342,VALID,0.0652344,
2014-04-24, 02:05:05,VALID,916.322,VALID,0,VALID,97.0613,VALID,0,VALID,19.5678,VALID,342,VALID,0.105859,
2014-04-24, 02:06:05,VALID,916.327,VALID,0,VALID,97.0766,VALID,0,VALID,19.5078,VALID,342,VALID,0.102344,
2014-04-24, 02:07:05,VALID,916.32,VALID,0,VALID,97.0994,VALID,0,VALID,19.4883,VALID,342,VALID,0,
2014-04-24, 02:08:05,VALID,916.319,VALID,0,VALID,97.1071,VALID,0,VALID,19.5093,VALID,342,VALID,0,
2014-04-24, 02:09:05,VALID,916.323,VALID,0,VALID,97.0918,VALID,0,VALID,19.4883,INVALID,360,VALID,0,
2014-04-24, 02:10:05,VALID,916.323,VALID,0,VALID,97.0842,VALID,0,VALID,19.4883,VALID,342,VALID,0.255078,
2014-04-24, 02:11:05,VALID,916.302,VALID,0,VALID,97.0994,VALID,0,VALID,19.4883,VALID,342,VALID,0.252734,
2014-04-24, 02:12:05,VALID,916.268,VALID,0,VALID,97.0842,VALID,0,VALID,19.5288,VALID,342,VALID,0,
2014-04-24, 02:13:05,VALID,916.243,VALID,0,VALID,97.0918,VALID,0,VALID,19.5078,INVALID,360,VALID,0,
2014-04-24, 02:14:05,VALID,916.192,VALID,0,VALID,97.0994,VALID,0,VALID,19.5093,VALID,342,VALID,0,
2014-04-24, 02:15:05,VALID,916.172,VALID,0,VALID,97.0842,VALID,0,VALID,19.5273,VALID,342,VALID,0,
2014-04-24, 02:16:05,VALID,916.163,VALID,0,VALID,97.0766,VALID,0,VALID,19.5468,VALID,342,VALID,0,
2014-04-24, 02:17:05,VALID,916.151,VALID,0,VALID,97.0766,VALID,0.107441,VALID,19.5468,VALID,342,VALID,0.0347656,
2014-04-24, 02:18:05,VALID,916.145,VALID,0,VALID,97.0918,VALID,0,VALID,19.5663,VALID,342,VALID,0,
2014-04-24, 02:19:05,VALID,916.163,VALID,0,VALID,97.0613,VALID,0,VALID,19.5663,VALID,342,VALID,0,
2014-04-24, 02:20:05,VALID,916.149,VALID,0,VALID,97.069,VALID,0.107441,VALID,19.5663,VALID,342,VALID,0,
2014-04-24, 02:21:05,VALID,916.151,VALID,0,VALID,97.0842,VALID,0,VALID,19.5858,VALID,342,VALID,0,
2014-04-24, 02:22:05,VALID,916.146,VALID,0,VALID,97.0918,VALID,0,VALID,19.5453,VALID,342,VALID,0,
2014-04-24, 02:23:05,VALID,916.181,VALID,0,VALID,97.0918,VALID,0,VALID,19.5273,VALID,342,VALID,0,
2014-04-24, 02:24:05,VALID,916.152,VALID,0,VALID,97.0918,VALID,0,VALID,19.4883,VALID,342,VALID,0,
2014-04-24, 02:25:05,VALID,916.157,VALID,0,VALID,97.1071,VALID,0,VALID,19.4493,VALID,343,VALID,0.825781,
2014-04-24, 02:26:05,VALID,916.189,VALID,0,VALID,97.0994,VALID,0,VALID,19.4493,VALID,343,VALID,0.897266,
2014-04-24, 02:27:05,VALID,916.136,VALID,0,VALID,97.0918,VALID,0,VALID,19.4283,VALID,343,VALID,0.480469,
2014-04-24, 02:28:05,VALID,916.17,VALID,0,VALID,97.0994,VALID,0,VALID,19.4493,VALID,343,VALID,0.566406,
2014-04-24, 02:29:04,VALID,916.15,VALID,0,VALID,97.0842,VALID,0,VALID,19.4493,VALID,343,VALID,0.163281,
2014-04-24, 02:30:04,VALID,916.148,VALID,0,VALID,97.0918,VALID,0,VALID,19.5093,VALID,343,VALID,0.528906,
2014-04-24, 02:31:04,VALID,916.121,VALID,0,VALID,97.0918,VALID,0,VALID,19.4883,VALID,81,VALID,0.707812,
2014-04-24, 02:32:04,VALID,916.076,VALID,0,VALID,97.0842,VALID,0,VALID,19.5288,VALID,137,VALID,0.767578,
2014-04-24, 02:33:04,VALID,916.052,VALID,0,VALID,97.0842,VALID,0,VALID,19.5288,VALID,137,VALID,0.572266,
2014-04-24, 02:34:04,VALID,916.026,VALID,0,VALID,97.0766,VALID,0,VALID,19.5273,VALID,137,VALID,0.357031,
2014-04-24, 02:35:04,VALID,916.005,VALID,0,VALID,97.0842,VALID,0,VALID,19.5468,VALID,137,VALID,0.9875,
2014-04-24, 02:36:04,VALID,915.993,VALID,0,VALID,97.0766,VALID,0,VALID,19.5468,VALID,113,VALID,0.573438,
2014-04-24, 02:37:04,VALID,915.991,VALID,0,VALID,97.0918,VALID,0.107441,VALID,19.5663,VALID,129,VALID,0.785937,
2014-04-24, 02:38:04,VALID,915.974,VALID,0,VALID,97.0918,VALID,0,VALID,19.5663,VALID,130,VALID,0.715234,
2014-04-24, 02:39:04,VALID,915.956,VALID,0,VALID,97.069,VALID,0,VALID,19.5663,VALID,128,VALID,1.16016,
2014-04-24, 02:40:04,VALID,915.961,VALID,0,VALID,97.0918,VALID,0,VALID,19.5873,VALID,125,VALID,0.565625,
2014-04-24, 02:41:04,VALID,915.96,VALID,0,VALID,97.0842,VALID,0,VALID,19.5678,VALID,95,VALID,1.00625,
2014-04-24, 02:42:04,VALID,915.958,VALID,0,VALID,97.0842,VALID,0,VALID,19.5873,VALID,118,VALID,1.43047,
2014-04-24, 02:43:04,VALID,915.947,VALID,0,VALID,97.0613,VALID,0,VALID,19.5873,VALID,146,VALID,0.423828,
2014-04-24, 02:44:04,VALID,915.954,VALID,0,VALID,97.0842,VALID,0,VALID,19.5858,VALID,127,VALID,0.842578,
2014-04-24, 02:45:04,VALID,915.93,VALID,0,VALID,97.0842,VALID,0,VALID,19.5858,VALID,131,VALID,1.44453,
2014-04-24, 02:46:04,VALID,915.923,VALID,0,VALID,97.0842,VALID,0,VALID,19.6068,VALID,100,VALID,0.524219,
2014-04-24, 02:47:04,VALID,915.916,VALID,0,VALID,97.0766,VALID,0,VALID,19.5858,VALID,130,VALID,0.978125,
2014-04-24, 02:48:04,VALID,915.862,VALID,0,VALID,97.0842,VALID,0,VALID,19.6263,VALID,129,VALID,0.0121094,
2014-04-24, 02:49:04,VALID,915.856,VALID,0,VALID,97.0766,VALID,0,VALID,19.6263,VALID,130,VALID,0.231641,
2014-04-24, 02:50:04,VALID,915.829,VALID,0,VALID,97.0766,VALID,0,VALID,19.6263,VALID,130,VALID,0.403125,
2014-04-24, 02:51:04,VALID,915.79,VALID,0,VALID,97.0766,VALID,0,VALID,19.6458,VALID,131,VALID,0.711328,
2014-04-24, 02:52:04,VALID,915.768,VALID,0,VALID,97.0766,VALID,0,VALID,19.6248,VALID,135,VALID,0.980078,
2014-04-24, 02:53:04,VALID,915.775,VALID,0,VALID,97.0842,VALID,0,VALID,19.6248,VALID,140,VALID,1.06289,
2014-04-24, 02:54:04,VALID,915.791,VALID,0,VALID,97.069,VALID,0,VALID,19.6263,VALID,141,VALID,0.948047,
2014-04-24, 02:55:04,VALID,915.771,VALID,0,VALID,97.0918,VALID,0,VALID,19.6263,VALID,139,VALID,1.40664,
2014-04-24, 02:56:04,VALID,915.739,VALID,0,VALID,97.0842,VALID,0,VALID,19.6458,VALID,139,VALID,0.885938,
2014-04-24, 02:57:04,VALID,915.725,VALID,0,VALID,97.0842,VALID,0,VALID,19.6053,VALID,138,VALID,1.17813,
2014-04-24, 02:58:04,VALID,915.708,VALID,0,VALID,97.0842,VALID,0,VALID,19.6458,VALID,137,VALID,1.41211,
2014-04-24, 02:59:04,VALID,915.675,VALID,0,VALID,97.069,VALID,0,VALID,19.6248,VALID,136,VALID,1.03711,
2014-04-24, 03:00:04,VALID,915.685,VALID,0,VALID,97.0766,VALID,0,VALID,19.6248,VALID,137,VALID,0.968359,
2014-04-24, 03:01:04,VALID,915.664,VALID,0,VALID,97.0766,VALID,0,VALID,19.6248,VALID,152,VALID,1.4207,
2014-04-24, 03:02:04,VALID,915.693,VALID,0,VALID,97.0918,VALID,0,VALID,19.6248,VALID,131,VALID,1.57539,
2014-04-24, 03:03:04,VALID,915.658,VALID,0,VALID,97.0842,VALID,0,VALID,19.6443,VALID,162,VALID,1.20625,
2014-04-24, 03:04:04,VALID,915.679,VALID,0,VALID,97.0766,VALID,0.107441,VALID,19.6248,VALID,154,VALID,0.712891,
2014-04-24, 03:05:04,VALID,915.66,VALID,0,VALID,97.069,VALID,0,VALID,19.6443,VALID,159,VALID,0.748438,
2014-04-24, 03:06:04,VALID,915.681,VALID,0,VALID,97.0842,VALID,0,VALID,19.6443,VALID,142,VALID,0.850391,
2014-04-24, 03:07:04,VALID,915.688,VALID,0,VALID,97.0842,VALID,0,VALID,19.6248,VALID,168,VALID,0.709375,
2014-04-24, 03:08:04,VALID,915.704,VALID,0,VALID,97.069,VALID,0,VALID,19.6053,VALID,170,VALID,0.908203,
2014-04-24, 03:09:04,VALID,915.711,VALID,0,VALID,97.1147,VALID,0.107441,VALID,19.6053,VALID,171,VALID,0.577734,
2014-04-24, 03:10:04,VALID,915.739,VALID,0,VALID,97.069,VALID,0,VALID,19.6458,VALID,171,VALID,0.574609,
2014-04-24, 03:11:04,VALID,915.715,VALID,0,VALID,97.0842,VALID,0,VALID,19.6053,VALID,171,VALID,0.364844,
2014-04-24, 03:12:04,VALID,915.737,VALID,0,VALID,97.0766,VALID,0,VALID,19.6053,VALID,171,VALID,0.121484,
2014-04-24, 03:13:04,VALID,915.75,VALID,0,VALID,97.0918,VALID,0,VALID,19.6248,VALID,171,VALID,0.178125,
2014-04-24, 03:14:04,VALID,915.77,VALID,0,VALID,97.0842,VALID,0,VALID,19.6263,VALID,171,VALID,0.20625,
2014-04-24, 03:15:04,VALID,915.768,VALID,0,VALID,97.0994,VALID,0,VALID,19.6053,VALID,171,VALID,0,
2014-04-24, 03:16:04,VALID,915.776,VALID,0,VALID,97.0842,VALID,0,VALID,19.5858,VALID,171,VALID,0,
2014-04-24, 03:17:04,VALID,915.789,VALID,0,VALID,97.0842,VALID,0,VALID,19.6263,VALID,171,VALID,0.0164062,
2014-04-24, 03:18:04,VALID,915.823,VALID,0,VALID,97.0918,VALID,0,VALID,19.6263,VALID,171,VALID,0.18125,
2014-04-24, 03:19:04,VALID,915.795,VALID,0,VALID,97.0842,VALID,0,VALID,19.6263,VALID,171,VALID,0,
2014-04-24, 03:20:04,VALID,915.814,VALID,0,VALID,97.0766,VALID,0,VALID,19.6068,VALID,171,VALID,0.367188,
2014-04-24, 03:21:04,VALID,915.806,VALID,0,VALID,97.1071,VALID,0,VALID,19.6068,VALID,175,VALID,0.708594,
2014-04-24, 03:22:04,VALID,915.798,VALID,0,VALID,97.0842,VALID,0,VALID,19.6068,VALID,175,VALID,0.660547,
2014-04-24, 03:23:04,VALID,915.806,VALID,0,VALID,97.0994,VALID,0,VALID,19.5663,VALID,175,VALID,0.884766,
2014-04-24, 03:24:04,VALID,915.834,VALID,0,VALID,97.0918,VALID,0,VALID,19.5483,VALID,175,VALID,0.528125,
2014-04-24, 03:25:04,VALID,915.817,VALID,0,VALID,97.0994,VALID,0,VALID,19.5288,VALID,175,VALID,0.315234,
2014-04-24, 03:26:04,VALID,915.842,VALID,0,VALID,97.0842,VALID,0,VALID,19.5483,VALID,175,VALID,0.175,
2014-04-24, 03:27:04,VALID,915.82,VALID,0,VALID,97.0842,VALID,0,VALID,19.5078,VALID,175,VALID,0.480859,
2014-04-24, 03:28:04,VALID,915.847,VALID,0,VALID,97.0994,VALID,0,VALID,19.5093,VALID,175,VALID,0.50625,
2014-04-24, 03:29:04,VALID,915.856,VALID,0,VALID,97.0994,VALID,0,VALID,19.4898,VALID,173,VALID,0.798047,
2014-04-24, 03:30:04,VALID,915.873,VALID,0,VALID,97.1147,VALID,0,VALID,19.4298,VALID,173,VALID,0.501172,
2014-04-24, 03:31:04,VALID,915.86,VALID,0,VALID,97.1223,VALID,0,VALID,19.4313,VALID,87,VALID,0.892187,
2014-04-24, 03:32:04,VALID,915.872,VALID,0,VALID,97.1376,VALID,0,VALID,19.4313,VALID,45,VALID,0.805469,
2014-04-24, 03:33:04,VALID,915.859,VALID,0,VALID,97.0994,VALID,0,VALID,19.4103,VALID,45,VALID,0.846875,
2014-04-24, 03:34:04,VALID,915.826,VALID,0,VALID,97.1299,VALID,0,VALID,19.3908,VALID,45,VALID,0.592188,
2014-04-24, 03:35:04,VALID,915.804,VALID,0,VALID,97.1147,VALID,0,VALID,19.4118,VALID,45,VALID,0.906641,
2014-04-24, 03:36:04,VALID,915.82,VALID,0,VALID,97.1223,VALID,0,VALID,19.4103,VALID,45,VALID,1.00781,
2014-04-24, 03:37:04,VALID,915.821,VALID,0,VALID,97.1223,VALID,0,VALID,19.4313,VALID,45,VALID,0.898828,
2014-04-24, 03:38:04,VALID,915.794,VALID,0,VALID,97.1147,VALID,0,VALID,19.4313,VALID,45,VALID,1.12305,
2014-04-24, 03:39:04,VALID,915.819,VALID,0,VALID,97.1223,VALID,0,VALID,19.4493,VALID,45,VALID,0.540625,
2014-04-24, 03:40:04,VALID,915.807,VALID,0,VALID,97.1071,VALID,0,VALID,19.4508,VALID,45,VALID,0.885156,
2014-04-24, 03:41:04,VALID,915.811,VALID,0,VALID,97.1452,VALID,0,VALID,19.4703,VALID,45,VALID,0.711719,
2014-04-24, 03:42:04,VALID,915.851,VALID,0,VALID,97.1147,VALID,0,VALID,19.4298,VALID,45,VALID,0.232422,
2014-04-24, 03:43:04,VALID,915.821,VALID,0,VALID,97.1071,VALID,0.107441,VALID,19.4298,VALID,45,VALID,0,
2014-04-24, 03:44:04,VALID,915.828,VALID,0,VALID,97.1147,VALID,0.107441,VALID,19.4493,VALID,45,VALID,0,
2014-04-24, 03:45:04,VALID,915.793,VALID,0,VALID,97.1147,VALID,0,VALID,19.4493,VALID,45,VALID,0,
2014-04-24, 03:46:04,VALID,915.813,VALID,0,VALID,97.1071,VALID,0,VALID,19.4493,VALID,45,VALID,0,
2014-04-24, 03:47:04,VALID,915.847,VALID,0,VALID,97.1223,VALID,0,VALID,19.4493,VALID,45,VALID,0.447656,
2014-04-24, 03:48:04,VALID,915.839,VALID,0,VALID,97.1223,VALID,0,VALID,19.4103,VALID,50,VALID,0.729688,